This demonstration page uses our WeatherBlox Daily Observations layout. Learn more.

38.88101, -77.10428

Hourly Observations for April 6, 2020

Temp ( °F °C ) Dew Point ( °F °C ) Humidity (%) Winds ( mph kmh ) Pressure ( in mb ) Visibility ( mi km ) Precip ( " mm )
12:52 am 00:52 Mostly Cloudy 58 14.4 52 11.1 81 81 S 8 13 30.02 1017 10 16.0934 0 0
1:52 am 01:52 Cloudy with Light Rain 58 14.4 52 11.1 81 81 S 5 7 30.02 1017 10 16.0934 0.001 0.001
2:52 am 02:52 Mostly Cloudy 57 13.9 52 11.1 83 83 S 6 9 30.02 1017 10 16.0934 0.001 0.001
3:52 am 03:52 Mostly Cloudy 57 13.9 53 11.7 87 87 S 6 9 30.02 1017 10 16.0934 0 0
4:52 am 04:52 Partly Cloudy 60 15.6 49 9.4 67 67 WNW 8 13 30.01 1016 10 16.0934 0 0
5:52 am 05:52 Mostly Cloudy 59 15 49 9.4 69 69 NW 8 13 30.02 1017 10 16.0934 0 0
6:52 am 06:52 Partly Cloudy 55 12.8 48 8.9 77 77 N 6 9 30.04 1017 10 16.0934 0 0
7:52 am 07:52 Partly Cloudy 59 15 50 10 72 72 N 8 13 30.07 1018 10 16.0934 0 0
8:52 am 08:52 Partly Cloudy 58 14.4 47 8.3 67 67 NNE 13 20 30.08 1019 10 16.0934 0 0
9:52 am 09:52 Partly Cloudy 61 16.1 47 8.3 60 60 NNE 12 19 30.08 1019 10 16.0934 0 0
11:52 am 11:52 Partly Cloudy 64 17.8 44 6.7 48 48 N 8 13 30.08 1019 10 16.0934 0 0
12:52 pm 12:52 Partly Cloudy 67 19.4 40 4.4 37 37 VRB 5 7 30.07 1018 10 16.0934 0 0
1:52 pm 13:52 Partly Cloudy 68 20 36 2.2 31 31 NW 10 17 30.06 1018 10 16.0934 0 0
2:52 pm 14:52 Mostly Cloudy 69 20.6 28 -2.2 22 22 NNE 10 17 30.04 1017 10 16.0934 0 0
2:56 pm 14:56 Mostly Cloudy 69 20.6 27 -2.8 21 21 N 10 17 30.04 1017 10 16.0934 0 0
3:52 pm 15:52 Partly Cloudy 70 21.1 29 -1.7 22 22 VRB 5 7 30.01 1016 10 16.0934 0 0
4:52 pm 16:52 Partly Cloudy 71 21.7 31 -0.6 23 23 NNW 12 19 29.99 1016 10 16.0934 0 0
5:52 pm 17:52 Partly Cloudy 70 21.1 27 -2.8 20 20 VRB 6 9 29.98 1015 10 16.0934 0 0
6:52 pm 18:52 Mostly Sunny 67 19.4 29 -1.7 24 24 WNW 8 13 29.99 1016 10 16.0934 0 0
7:52 pm 19:52 Mostly Clear 64 17.8 29 -1.7 27 27 NW 6 9 29.98 1015 10 16.0934 0 0
8:52 pm 20:52 Mostly Clear 61 16.1 37 2.8 41 41 SE 7 11 30 1016 10 16.0934 0 0
9:52 pm 21:52 Mostly Clear 58 14.4 38 3.3 48 48 S 7 11 30.01 1016 10 16.0934 0 0
10:52 pm 22:52 Mostly Clear 58 14.4 37 2.8 46 46 SSW 3 6 30.02 1017 10 16.0934 0 0
11:52 pm 23:52 Mostly Clear 57 13.9 44 6.7 62 62 Calm 30.01 1016 10 16.0934 0 0

Powered by AerisWeather